Location: Asarope
(8.2500°N, 4.4833°E)
Time: 20:48:35
(UTC+00:00)

Hubble Space Telescope - Pass Details

Date: 05 August 2021
Orbit: 535 x 539 km, 28.5° (Epoch: 20 September)

Event Time Altitude Azimuth Distance (km) Brightness Sun altitude
Rises 18:31:40 0° 319° (NW) 2,666 5.5 -7.9°
Reaches altitude 10° 18:34:27 10° 337° (NNW) 1,776 4.0 -8.6°
Maximum altitude 18:37:23 19° 23° (NNE) 1,310 2.7 -9.3°
Drops below altitude 10° 18:40:20 10° 69° (ENE) 1,775 3.0 -10.0°
Enters shadow 18:40:45 - 73° (ENE) 1,893 3.1 -10.1°
